QPF
0.00 0.00 0.00 0.00 0.00 0.00 0.01 0.01 0.01 0.00 0.01 0.01 0.01 0.01 0.01 0.01 0.01 0.01 0.01 0.01 0.00 0.00 0.01 0.01 0.01 0.00 0.00 0.01 0.01 0.02 0.03 0.05 0.05 0.05 0.05 0.05 0.05 0.06 0.07 0.08 0.10 0.08 0.07 0.06
0.00 0.00 0.00 0.00 0.00 0.00 0.01 0.01 0.01 0.00 0.00 0.01 0.01 0.01 0.01 0.01 0.01 0.00 0.00 0.01 0.01 0.00 0.00 0.00 0.00 0.00 0.00 0.00 0.01 0.02 0.03 0.04 0.06 0.07 0.06 0.05 0.05 0.05 0.05 0.06 0.05 0.04 0.04 0.05
0.00 0.00 0.00 0.00 0.00 0.00 0.01 0.00 0.00 0.00 0.01 0.01 0.01 0.01 0.01 0.00 0.01 0.00 0.00 0.01 0.00 0.00 0.00 0.00 0.00 0.00 0.00 0.00 0.01 0.02 0.03 0.03 0.04 0.08 0.08 0.04 0.04 0.04 0.05 0.04 0.04 0.04 0.04 0.03
0.00 0.00 0.00 0.00 0.00 0.00 0.00 0.00 0.00 0.00 0.00 0.01 0.01 0.01 0.00 0.01 0.01 0.01 0.00 0.00 0.00 0.00 0.00 0.00 0.00 0.00 0.00 0.00 0.01 0.01 0.01 0.02 0.04 0.07 0.07 0.03 0.03 0.03 0.03 0.02 0.03 0.04 0.04 0.03
0.00 0.00 0.00 0.00 0.00 0.00 0.00 0.00 0.00 0.01 0.01 0.01 0.01 0.01 0.01 0.01 0.01 0.01 0.01 0.01 0.00 0.00 0.00 0.00 0.00 0.01 0.01 0.01 0.01 0.01 0.01 0.02 0.03 0.05 0.05 0.02 0.02 0.02 0.02 0.02 0.03 0.03 0.03 0.03
0.00 0.00 0.00 0.00 0.00 0.00 0.00 0.00 0.01 0.01 0.01 0.01 0.01 0.01 0.01 0.01 0.01 0.01 0.01 0.01 0.00 0.00 0.00 0.00 0.00 0.01 0.01 0.01 0.01 0.01 0.01 0.01 0.02 0.02 0.02 0.01 0.01 0.01 0.02 0.03 0.04 0.05 0.05 0.05
0.00 0.00 0.00 0.00 0.00 0.00 0.00 0.00 0.01 0.01 0.01 0.01 0.01 0.01 0.01 0.01 0.01 0.01 0.01 0.01 0.01 0.01 0.01 0.00 0.00 0.01 0.01 0.01 0.02 0.02 0.01 0.01 0.01 0.01 0.01 0.01 0.01 0.01 0.02 0.03 0.05 0.05 0.04 0.03
0.00 0.00 0.00 0.00 0.00 0.00 0.00 0.00 0.00 0.01 0.01 0.01 0.00 0.00 0.01 0.01 0.01 0.01 0.01 0.01 0.01 0.00 0.00 0.00 0.00 0.01 0.01 0.02 0.03 0.02 0.01 0.02 0.02 0.01 0.01 0.01 0.01 0.02 0.02 0.02 0.03 0.03 0.03 0.02
0.00 0.00 0.00 0.00 0.00 0.00 0.00 0.00 0.00 0.00 0.01 0.01 0.01 0.01 0.01 0.01 0.01 0.01 0.01 0.01 0.00 0.00 0.00 0.01 0.00 0.01 0.01 0.02 0.03 0.02 0.02 0.03 0.02 0.02 0.03 0.02 0.02 0.02 0.02 0.02 0.02 0.03 0.03 0.02
0.00 0.00 0.00 0.00 0.00 0.00 0.00 0.00 0.00 0.00 0.00 0.01 0.01 0.01 0.02 0.02 0.02 0.01 0.01 0.01 0.01 0.00 0.00 0.00 0.01 0.01 0.02 0.04 0.02 0.03 0.04 0.03 0.02 0.03 0.05 0.05 0.04 0.03 0.03 0.02 0.02 0.02 0.03 0.02
0.00 0.00 0.00 0.00 0.00 0.00 0.00 0.00 0.00 0.00 0.00 0.00 0.01 0.01 0.01 0.01 0.02 0.01 0.00 0.00 0.01 0.01 0.01 0.02 0.02 0.02 0.04 0.03 0.02 0.03 0.03 0.03 0.04 0.03 0.04 0.04 0.05 0.06 0.03 0.02 0.02 0.03 0.03 0.03
0.00 0.00 0.00 0.00 0.00 0.00 0.00 0.00 0.00 0.00 0.00 0.00 0.00 0.01 0.01 0.01 0.01 0.01 0.00 0.00 0.00 0.01 0.01 0.02 0.02 0.02 0.03 0.02 0.02 0.02 0.03 0.03 0.03 0.04 0.07 0.08 0.07 0.08 0.06 0.04 0.04 0.03 0.03 0.04
0.00 0.00 0.00 0.00 0.00 0.00 0.00 0.00 0.00 0.00 0.00 0.00 0.00 0.01 0.01 0.01 0.01 0.01 0.01 0.00 0.00 0.01 0.01 0.01 0.01 0.01 0.02 0.02 0.02 0.03 0.03 0.04 0.04 0.05 0.07 0.08 0.07 0.06 0.06 0.06 0.05 0.04 0.05 0.04
0.00 0.00 0.00 0.00 0.00 0.00 0.00 0.00 0.00 0.00 0.00 0.00 0.00 0.01 0.01 0.01 0.01 0.01 0.01 0.01 0.01 0.01 0.01 0.01 0.01 0.01 0.02 0.02 0.02 0.03 0.04 0.03 0.03 0.06 0.07 0.07 0.07 0.06 0.05 0.04 0.04 0.04 0.04 0.03
0.00 0.00 0.00 0.00 0.00 0.00 0.00 0.00 0.00 0.00 0.00 0.00 0.00 0.00 0.01 0.01 0.01 0.00 0.01 0.01 0.01 0.00 0.00 0.01 0.01 0.01 0.01 0.02 0.01 0.01 0.02 0.02 0.03 0.07 0.07 0.07 0.08 0.06 0.04 0.04 0.04 0.04 0.05 0.05
0.00 0.00 0.00 0.00 0.00 0.00 0.00 0.00 0.00 0.00 0.00 0.00 0.00 0.00 0.00 0.01 0.01 0.01 0.01 0.00 0.00 0.00 0.00 0.01 0.01 0.01 0.01 0.01 0.01 0.01 0.01 0.02 0.04 0.06 0.05 0.04 0.04 0.04 0.03 0.04 0.05 0.04 0.05 0.05
0.00 0.00 0.00 0.00 0.00 0.00 0.00 0.00 0.00 0.00 0.00 0.00 0.00 0.00 0.00 0.01 0.01 0.01 0.01 0.00 0.00 0.00 0.00 0.01 0.01 0.01 0.01 0.01 0.01 0.01 0.02 0.03 0.05 0.07 0.04 0.03 0.02 0.02 0.02 0.03 0.03 0.03 0.04 0.04
0.00 0.00 0.00 0.00 0.00 0.00 0.00 0.00 0.00 0.00 0.00 0.00 0.00 0.00 0.01 0.01 0.01 0.01 0.01 0.00 0.00 0.00 0.01 0.01 0.01 0.01 0.01 0.01 0.01 0.01 0.02 0.03 0.05 0.05 0.02 0.02 0.01 0.02 0.04 0.07 0.06 0.04 0.04 0.04
0.00 0.00 0.00 0.00 0.00 0.00 0.00 0.00 0.00 0.00 0.01 0.01 0.00 0.00 0.00 0.00 0.01 0.01 0.01 0.01 0.01 0.01 0.01 0.01 0.02 0.02 0.02 0.01 0.01 0.01 0.02 0.03 0.03 0.02 0.02 0.02 0.01 0.01 0.01 0.04 0.08 0.09 0.09 0.09
0.00 0.00 0.00 0.00 0.00 0.00 0.00 0.00 0.00 0.00 0.00 0.00 0.00 0.00 0.00 0.00 0.00 0.00 0.00 0.01 0.00 0.01 0.01 0.02 0.03 0.03 0.02 0.01 0.01 0.01 0.02 0.02 0.03 0.03 0.03 0.02 0.01 0.02 0.01 0.01 0.03 0.07 0.10 0.09
0.00 0.00 0.00 0.00 0.00 0.00 0.00 0.00 0.00 0.00 0.00 0.00 0.00 0.00 0.00 0.00 0.00 0.00 0.00 0.01 0.01 0.01 0.01 0.02 0.03 0.03 0.03 0.02 0.02 0.02 0.03 0.04 0.06 0.05 0.04 0.02 0.01 0.01 0.01 0.02 0.03 0.04 0.04 0.04
0.01 0.00 0.00 0.00 0.00 0.00 0.00 0.00 0.00 0.00 0.00 0.00 0.00 0.00 0.00 0.01 0.01 0.00 0.01 0.01 0.01 0.01 0.01 0.01 0.02 0.04 0.03 0.03 0.02 0.02 0.03 0.04 0.05 0.05 0.03 0.02 0.02 0.02 0.01 0.01 0.01 0.01 0.01 0.02
0.01 0.01 0.01 0.01 0.01 0.00 0.00 0.00 0.00 0.00 0.00 0.00 0.00 0.00 0.01 0.01 0.01 0.01 0.01 0.01 0.01 0.01 0.01 0.01 0.01 0.04 0.05 0.05 0.03 0.04 0.04 0.05 0.04 0.03 0.03 0.02 0.02 0.02 0.02 0.02 0.02 0.01 0.01 0.01
0.01 0.01 0.01 0.02 0.01 0.01 0.01 0.01 0.01 0.01 0.01 0.01 0.01 0.01 0.01 0.01 0.01 0.01 0.01 0.01 0.02 0.02 0.02 0.02 0.02 0.03 0.06 0.05 0.06 0.06 0.06 0.06 0.06 0.04 0.03 0.03 0.03 0.03 0.04 0.03 0.03 0.02 0.02 0.01
0.01 0.01 0.02 0.02 0.02 0.02 0.02 0.02 0.02 0.01 0.01 0.02 0.02 0.02 0.02 0.02 0.02 0.01 0.01 0.01 0.02 0.02 0.02 0.03 0.04 0.03 0.04 0.05 0.05 0.05 0.05 0.05 0.05 0.04 0.03 0.03 0.03 0.03 0.04 0.03 0.02 0.02 0.02 0.02
0.01 0.01 0.02 0.02 0.02 0.02 0.03 0.03 0.02 0.03 0.03 0.04 0.03 0.03 0.03 0.02 0.02 0.02 0.02 0.03 0.03 0.02 0.02 0.02 0.03 0.04 0.04 0.05 0.05 0.04 0.04 0.04 0.04 0.04 0.03 0.02 0.02 0.02 0.02 0.02 0.03 0.04 0.02 0.02
MSLP
1009.55 1010.54 1011.38 1012.03 1012.50 1012.85 1013.12 1013.36 1013.59 1013.82 1014.02 1014.16 1014.21 1014.15 1013.98 1013.72 1013.41 1013.13 1012.90 1012.77 1012.73 1012.78 1012.89 1013.02 1013.13 1013.21 1013.25 1013.25 1013.25 1013.26 1013.30 1013.38 1013.47 1013.57 1013.63 1013.65 1013.60 1013.49 1013.34 1013.19 1013.06 1012.99 1012.98 1013.05
1010.26 1011.02 1011.60 1012.01 1012.29 1012.51 1012.74 1013.01 1013.34 1013.69 1014.00 1014.23 1014.31 1014.22 1013.97 1013.60 1013.18 1012.79 1012.50 1012.35 1012.34 1012.46 1012.65 1012.86 1013.05 1013.17 1013.22 1013.21 1013.19 1013.19 1013.23 1013.33 1013.48 1013.64 1013.78 1013.86 1013.86 1013.78 1013.62 1013.43 1013.26 1013.13 1013.09 1013.13
1010.70 1011.21 1011.55 1011.76 1011.90 1012.07 1012.33 1012.70 1013.17 1013.67 1014.11 1014.41 1014.50 1014.35 1013.98 1013.46 1012.88 1012.36 1011.97 1011.78 1011.79 1011.97 1012.25 1012.56 1012.83 1013.01 1013.09 1013.09 1013.06 1013.05 1013.10 1013.22 1013.42 1013.65 1013.87 1014.04 1014.10 1014.05 1013.91 1013.71 1013.50 1013.33 1013.24 1013.25
1010.86 1011.16 1011.30 1011.37 1011.46 1011.66 1012.02 1012.56 1013.22 1013.90 1014.47 1014.83 1014.89 1014.63 1014.09 1013.36 1012.58 1011.87 1011.35 1011.09 1011.10 1011.32 1011.69 1012.10 1012.47 1012.72 1012.85 1012.88 1012.86 1012.84 1012.89 1013.04 1013.28 1013.57 1013.87 1014.11 1014.25 1014.26 1014.15 1013.96 1013.73 1013.54 1013.41 1013.38
1010.85 1010.96 1010.96 1010.97 1011.08 1011.39 1011.93 1012.68 1013.56 1014.42 1015.11 1015.49 1015.49 1015.08 1014.32 1013.33 1012.29 1011.36 1010.67 1010.31 1010.28 1010.54 1010.99 1011.50 1011.97 1012.32 1012.52 1012.59 1012.59 1012.58 1012.63 1012.79 1013.06 1013.40 1013.76 1014.07 1014.28 1014.36 1014.30 1014.13 1013.92 1013.71 1013.56 1013.51
1010.76 1010.72 1010.64 1010.64 1010.84 1011.31 1012.07 1013.06 1014.15 1015.18 1015.95 1016.33 1016.22 1015.62 1014.61 1013.34 1012.02 1010.84 1009.96 1009.47 1009.40 1009.67 1010.19 1010.80 1011.38 1011.84 1012.13 1012.26 1012.29 1012.30 1012.36 1012.52 1012.80 1013.16 1013.56 1013.93 1014.21 1014.35 1014.34 1014.22 1014.03 1013.84 1013.69 1013.62
1010.70 1010.54 1010.42 1010.46 1010.77 1011.41 1012.38 1013.58 1014.87 1016.02 1016.85 1017.19 1016.96 1016.16 1014.89 1013.35 1011.75 1010.33 1009.25 1008.64 1008.50 1008.78 1009.35 1010.06 1010.75 1011.32 1011.71 1011.92 1012.00 1012.04 1012.11 1012.27 1012.54 1012.91 1013.33 1013.74 1014.06 1014.25 1014.31 1014.24 1014.09 1013.93 1013.79 1013.73
1010.75 1010.49 1010.34 1010.42 1010.83 1011.62 1012.75 1014.12 1015.53 1016.75 1017.59 1017.87 1017.51 1016.53 1015.05 1013.27 1011.45 1009.83 1008.60 1007.87 1007.67 1007.94 1008.54 1009.33 1010.12 1010.79 1011.28 1011.59 1011.74 1011.82 1011.91 1012.08 1012.35 1012.71 1013.13 1013.55 1013.90 1014.14 1014.24 1014.23 1014.13 1014.00 1013.90 1013.85
1010.95 1010.60 1010.41 1010.51 1010.97 1011.84 1013.06 1014.49 1015.94 1017.17 1017.97 1018.17 1017.71 1016.60 1014.99 1013.07 1011.11 1009.37 1008.03 1007.22 1006.97 1007.22 1007.84 1008.67 1009.53 1010.29 1010.88 1011.28 1011.51 1011.65 1011.78 1011.96 1012.23 1012.59 1013.01 1013.42 1013.79 1014.06 1014.21 1014.25 1014.20 1014.12 1014.05 1014.03
1011.30 1010.88 1010.64 1010.70 1011.15 1012.00 1013.19 1014.58 1015.97 1017.13 1017.86 1017.99 1017.46 1016.31 1014.65 1012.71 1010.73 1008.96 1007.60 1006.76 1006.47 1006.70 1007.31 1008.14 1009.03 1009.84 1010.50 1010.98 1011.30 1011.52 1011.71 1011.93 1012.21 1012.57 1012.98 1013.40 1013.78 1014.07 1014.25 1014.33 1014.34 1014.30 1014.27 1014.28
1011.80 1011.30 1010.99 1010.97 1011.32 1012.06 1013.10 1014.34 1015.57 1016.59 1017.20 1017.27 1016.73 1015.62 1014.05 1012.21 1010.33 1008.66 1007.35 1006.53 1006.23 1006.41 1006.97 1007.76 1008.62 1009.44 1010.14 1010.69 1011.09 1011.39 1011.65 1011.93 1012.26 1012.64 1013.06 1013.48 1013.87 1014.18 1014.39 1014.52 1014.57 1014.59 1014.59 1014.63
1012.40 1011.84 1011.45 1011.32 1011.51 1012.03 1012.84 1013.82 1014.80 1015.62 1016.09 1016.11 1015.61 1014.62 1013.23 1011.61 1009.96 1008.47 1007.30 1006.55 1006.25 1006.38 1006.85 1007.54 1008.32 1009.10 1009.79 1010.36 1010.83 1011.22 1011.57 1011.93 1012.33 1012.75 1013.20 1013.64 1014.04 1014.37 1014.62 1014.79 1014.89 1014.95 1015.00 1015.07
1013.07 1012.49 1012.02 1011.75 1011.73 1011.98 1012.47 1013.12 1013.79 1014.35 1014.67 1014.64 1014.22 1013.41 1012.29 1010.99 1009.64 1008.42 1007.44 1006.79 1006.51 1006.56 1006.91 1007.46 1008.11 1008.79 1009.43 1010.01 1010.52 1010.99 1011.44 1011.90 1012.37 1012.86 1013.35 1013.82 1014.25 1014.61 1014.89 1015.09 1015.24 1015.36 1015.46 1015.57
1013.77 1013.19 1012.66 1012.25 1012.01 1011.96 1012.09 1012.36 1012.68 1012.96 1013.10 1013.03 1012.70 1012.12 1011.31 1010.37 1009.39 1008.48 1007.73 1007.20 1006.94 1006.92 1007.12 1007.50 1007.98 1008.52 1009.07 1009.62 1010.17 1010.70 1011.24 1011.80 1012.36 1012.92 1013.47 1013.98 1014.43 1014.82 1015.14 1015.39 1015.60 1015.77 1015.93 1016.09
1014.45 1013.90 1013.34 1012.80 1012.34 1011.98 1011.75 1011.62 1011.58 1011.57 1011.53 1011.42 1011.19 1010.83 1010.35 1009.78 1009.18 1008.59 1008.09 1007.70 1007.45 1007.37 1007.42 1007.62 1007.91 1008.29 1008.74 1009.24 1009.79 1010.38 1011.00 1011.64 1012.28 1012.92 1013.52 1014.07 1014.56 1014.98 1015.34 1015.64 1015.90 1016.14 1016.36 1016.58
1015.04 1014.54 1013.95 1013.31 1012.65 1012.01 1011.44 1010.95 1010.56 1010.27 1010.06 1009.89 1009.75 1009.59 1009.42 1009.20 1008.96 1008.69 1008.42 1008.18 1007.97 1007.82 1007.75 1007.77 1007.90 1008.13 1008.46 1008.90 1009.44 1010.06 1010.74 1011.45 1012.16 1012.86 1013.50 1014.09 1014.61 1015.06 1015.45 1015.80 1016.13 1016.43 1016.72 1017.01
1015.45 1014.99 1014.40 1013.67 1012.84 1011.97 1011.10 1010.29 1009.61 1009.07 1008.70 1008.48 1008.41 1008.43 1008.51 1008.61 1008.68 1008.70 1008.66 1008.55 1008.40 1008.22 1008.06 1007.95 1007.93 1008.04 1008.28 1008.66 1009.18 1009.81 1010.53 1011.29 1012.05 1012.78 1013.45 1014.05 1014.59 1015.06 1015.49 1015.89 1016.27 1016.64 1017.01 1017.37
1015.60 1015.16 1014.54 1013.74 1012.78 1011.72 1010.62 1009.58 1008.66 1007.94 1007.44 1007.19 1007.17 1007.33 1007.62 1007.97 1008.30 1008.57 1008.73 1008.76 1008.68 1008.51 1008.31 1008.13 1008.03 1008.05 1008.22 1008.57 1009.07 1009.70 1010.43 1011.21 1011.98 1012.72 1013.40 1014.00 1014.54 1015.03 1015.48 1015.92 1016.35 1016.79 1017.23 1017.66
1015.44 1014.97 1014.30 1013.42 1012.36 1011.17 1009.92 1008.72 1007.66 1006.81 1006.25 1005.98 1006.01 1006.28 1006.73 1007.27 1007.82 1008.28 1008.62 1008.79 1008.81 1008.70 1008.51 1008.32 1008.19 1008.18 1008.32 1008.65 1009.14 1009.76 1010.48 1011.25 1012.01 1012.73 1013.39 1013.98 1014.52 1015.00 1015.47 1015.94 1016.41 1016.91 1017.40 1017.89
1014.96 1014.39 1013.63 1012.67 1011.54 1010.27 1008.95 1007.68 1006.55 1005.67 1005.09 1004.84 1004.92 1005.29 1005.86 1006.55 1007.25 1007.88 1008.37 1008.68 1008.81 1008.79 1008.67 1008.52 1008.42 1008.43 1008.59 1008.91 1009.39 1009.99 1010.69 1011.43 1012.16 1012.84 1013.47 1014.03 1014.54 1015.02 1015.50 1015.98 1016.49 1017.02 1017.56 1018.08
1014.22 1013.49 1012.61 1011.56 1010.36 1009.06 1007.73 1006.47 1005.37 1004.52 1003.98 1003.79 1003.94 1004.39 1005.05 1005.85 1006.67 1007.42 1008.04 1008.48 1008.73 1008.83 1008.82 1008.76 1008.74 1008.80 1008.99 1009.33 1009.80 1010.38 1011.04 1011.73 1012.41 1013.04 1013.62 1014.15 1014.64 1015.11 1015.59 1016.08 1016.61 1017.16 1017.71 1018.25
1013.33 1012.39 1011.35 1010.19 1008.94 1007.64 1006.36 1005.17 1004.16 1003.41 1002.98 1002.88 1003.11 1003.63 1004.36 1005.23 1006.13 1006.98 1007.70 1008.25 1008.64 1008.87 1008.98 1009.05 1009.13 1009.27 1009.50 1009.86 1010.33 1010.88 1011.49 1012.12 1012.74 1013.31 1013.85 1014.34 1014.80 1015.26 1015.74 1016.24 1016.77 1017.32 1017.87 1018.40
1012.42 1011.24 1010.02 1008.75 1007.47 1006.19 1004.98 1003.91 1003.04 1002.44 1002.13 1002.14 1002.46 1003.05 1003.84 1004.76 1005.71 1006.62 1007.42 1008.08 1008.58 1008.94 1009.19 1009.38 1009.57 1009.79 1010.08 1010.46 1010.91 1011.43 1011.98 1012.55 1013.09 1013.61 1014.10 1014.56 1015.01 1015.46 1015.93 1016.43 1016.95 1017.49 1018.02 1018.53
1011.60 1010.19 1008.80 1007.42 1006.10 1004.87 1003.76 1002.82 1002.11 1001.67 1001.50 1001.64 1002.04 1002.69 1003.52 1004.47 1005.45 1006.39 1007.25 1007.99 1008.59 1009.07 1009.44 1009.75 1010.04 1010.34 1010.68 1011.06 1011.49 1011.97 1012.46 1012.95 1013.44 1013.90 1014.34 1014.78 1015.21 1015.66 1016.12 1016.62 1017.13 1017.64 1018.14 1018.60
1010.94 1009.33 1007.78 1006.33 1004.99 1003.80 1002.79 1002.00 1001.45 1001.16 1001.14 1001.38 1001.87 1002.56 1003.41 1004.36 1005.35 1006.31 1007.20 1008.00 1008.68 1009.26 1009.74 1010.15 1010.52 1010.88 1011.24 1011.62 1012.03 1012.45 1012.87 1013.30 1013.72 1014.13 1014.54 1014.95 1015.37 1015.81 1016.28 1016.77 1017.26 1017.75 1018.20 1018.62
1010.41 1008.66 1007.02 1005.51 1004.18 1003.05 1002.15 1001.48 1001.08 1000.93 1001.02 1001.36 1001.91 1002.63 1003.49 1004.43 1005.41 1006.37 1007.28 1008.12 1008.86 1009.50 1010.06 1010.55 1010.98 1011.38 1011.75 1012.12 1012.48 1012.84 1013.20 1013.56 1013.92 1014.28 1014.66 1015.05 1015.46 1015.90 1016.36 1016.84 1017.31 1017.77 1018.19 1018.55
Thickness
5817 5802 5792 5798 5804 5804 5797 5788 5783 5789 5802 5795 5788 5787 5793 5798 5797 5793 5791 5789 5788 5788 5791 5790 5788 5786 5783 5780 5777 5774 5772 5770 5768 5766 5762 5760 5758 5759 5760 5760 5759 5759 5759 5758
5799 5794 5808 5814 5811 5806 5798 5787 5785 5792 5802 5795 5786 5787 5796 5799 5799 5800 5797 5794 5792 5790 5790 5789 5788 5786 5784 5781 5778 5775 5773 5771 5769 5768 5765 5762 5760 5760 5760 5759 5759 5759 5759 5758
5794 5803 5816 5810 5803 5798 5794 5789 5788 5786 5793 5793 5785 5779 5789 5798 5803 5803 5803 5801 5798 5796 5792 5790 5788 5786 5785 5782 5779 5778 5775 5773 5771 5769 5766 5763 5761 5759 5758 5757 5757 5758 5758 5758
5799 5810 5811 5805 5801 5800 5787 5803 5800 5792 5778 5767 5776 5756 5780 5790 5794 5799 5800 5801 5801 5801 5798 5794 5791 5788 5787 5785 5784 5780 5777 5774 5772 5770 5766 5763 5759 5756 5757 5757 5757 5758 5758 5757
5795 5806 5806 5800 5805 5807 5799 5807 5799 5789 5774 5763 5766 5757 5770 5785 5786 5795 5802 5805 5806 5805 5803 5799 5797 5793 5791 5789 5785 5782 5778 5775 5774 5771 5768 5765 5761 5759 5758 5758 5757 5756 5756 5756
5800 5813 5813 5811 5815 5814 5807 5795 5784 5771 5761 5747 5758 5754 5762 5778 5791 5800 5807 5810 5810 5809 5807 5804 5801 5798 5793 5790 5787 5784 5779 5776 5775 5772 5770 5767 5763 5760 5758 5756 5755 5754 5754 5754
5786 5799 5811 5816 5802 5802 5796 5770 5746 5742 5734 5739 5759 5755 5766 5798 5808 5810 5811 5812 5814 5813 5809 5805 5801 5798 5794 5791 5788 5785 5781 5777 5775 5773 5771 5768 5766 5763 5760 5758 5756 5754 5753 5753
5764 5768 5798 5808 5802 5789 5785 5775 5746 5733 5730 5739 5754 5753 5781 5809 5816 5819 5819 5818 5816 5814 5812 5808 5805 5801 5798 5794 5790 5787 5782 5779 5776 5774 5772 5770 5768 5765 5762 5760 5758 5756 5754 5754
5758 5766 5799 5808 5811 5800 5780 5771 5773 5748 5741 5736 5745 5762 5787 5809 5811 5813 5815 5815 5814 5814 5812 5810 5807 5804 5800 5796 5792 5788 5784 5781 5778 5775 5773 5770 5768 5766 5764 5762 5759 5757 5756 5755
5771 5765 5786 5799 5804 5797 5791 5775 5755 5742 5728 5727 5743 5753 5766 5792 5801 5806 5808 5810 5812 5813 5811 5809 5807 5804 5802 5799 5795 5790 5786 5782 5779 5776 5773 5771 5768 5766 5764 5762 5759 5758 5756 5755
5772 5761 5771 5782 5780 5778 5776 5767 5754 5741 5742 5729 5729 5752 5794 5797 5804 5805 5809 5812 5812 5812 5811 5809 5807 5804 5802 5798 5794 5790 5786 5782 5778 5776 5773 5771 5768 5766 5763 5761 5759 5758 5756 5754
5760 5750 5747 5765 5783 5790 5784 5772 5757 5746 5738 5735 5734 5756 5807 5806 5808 5808 5809 5811 5812 5812 5811 5809 5806 5802 5799 5796 5793 5790 5786 5782 5779 5775 5772 5769 5767 5764 5762 5760 5759 5758 5756 5753
5754 5740 5732 5742 5756 5771 5770 5768 5763 5752 5737 5729 5732 5760 5803 5804 5805 5806 5806 5808 5809 5809 5807 5806 5803 5800 5797 5795 5792 5790 5786 5782 5779 5775 5771 5768 5766 5763 5761 5760 5759 5757 5755 5752
5755 5734 5731 5730 5741 5755 5759 5763 5759 5752 5736 5732 5743 5766 5787 5795 5798 5802 5804 5805 5805 5805 5804 5802 5800 5798 5796 5794 5791 5788 5785 5782 5777 5773 5769 5767 5764 5762 5760 5758 5757 5755 5753 5751
5743 5729 5735 5743 5754 5757 5759 5760 5759 5756 5752 5747 5757 5764 5783 5793 5798 5801 5802 5801 5801 5800 5800 5799 5797 5795 5793 5791 5789 5787 5783 5780 5777 5772 5768 5766 5764 5761 5758 5756 5753 5751 5750 5749
5725 5722 5729 5735 5746 5750 5751 5757 5759 5760 5759 5758 5763 5767 5789 5795 5796 5796 5798 5798 5797 5797 5798 5798 5796 5794 5792 5790 5787 5785 5782 5779 5776 5771 5768 5765 5762 5759 5757 5754 5751 5749 5747 5746
5709 5712 5711 5713 5729 5738 5732 5751 5756 5758 5762 5762 5758 5772 5783 5785 5790 5794 5796 5797 5797 5797 5797 5796 5795 5794 5792 5790 5788 5784 5782 5779 5775 5771 5767 5764 5761 5757 5754 5753 5749 5746 5744 5742
5701 5697 5692 5697 5712 5706 5735 5759 5762 5759 5760 5764 5768 5774 5780 5785 5791 5795 5796 5795 5794 5795 5794 5794 5793 5792 5791 5789 5787 5783 5779 5776 5773 5769 5766 5763 5759 5755 5752 5749 5746 5743 5740 5738
5700 5694 5683 5682 5690 5705 5732 5749 5752 5750 5751 5763 5765 5770 5775 5781 5783 5785 5791 5793 5793 5793 5793 5793 5792 5791 5788 5786 5784 5780 5775 5772 5769 5766 5764 5762 5758 5753 5749 5746 5743 5740 5737 5735
5689 5689 5682 5677 5684 5689 5722 5747 5755 5750 5739 5759 5762 5763 5765 5770 5763 5774 5786 5787 5788 5788 5788 5788 5788 5786 5783 5781 5779 5775 5771 5768 5766 5765 5763 5760 5756 5752 5747 5744 5741 5738 5735 5732
5674 5672 5672 5673 5679 5694 5724 5740 5747 5725 5734 5755 5758 5760 5760 5762 5769 5776 5781 5781 5781 5782 5783 5783 5782 5780 5777 5776 5773 5769 5766 5764 5764 5762 5759 5756 5753 5749 5745 5741 5738 5735 5731 5728
5666 5664 5663 5665 5671 5688 5722 5728 5725 5728 5742 5748 5753 5756 5757 5761 5766 5770 5772 5773 5773 5774 5776 5776 5773 5772 5771 5770 5767 5763 5761 5760 5758 5756 5753 5750 5748 5746 5742 5737 5734 5730 5727 5723
5660 5667 5668 5673 5683 5700 5710 5716 5724 5729 5734 5740 5745 5750 5752 5754 5757 5761 5762 5764 5765 5767 5767 5768 5765 5763 5763 5763 5762 5758 5756 5755 5752 5749 5747 5744 5742 5739 5737 5733 5729 5725 5722 5719
5657 5663 5664 5669 5683 5694 5702 5710 5717 5724 5729 5735 5740 5744 5747 5747 5750 5752 5754 5755 5756 5758 5758 5758 5756 5754 5753 5754 5754 5752 5750 5749 5746 5743 5740 5737 5735 5732 5729 5727 5724 5720 5717 5714
5649 5655 5656 5662 5674 5684 5695 5701 5708 5715 5721 5727 5731 5735 5738 5739 5741 5743 5744 5746 5748 5749 5749 5749 5748 5747 5745 5744 5744 5744 5743 5742 5739 5736 5733 5730 5727 5725 5722 5719 5717 5715 5714 5712
5643 5648 5650 5656 5668 5671 5680 5691 5699 5703 5709 5715 5720 5723 5727 5729 5730 5733 5734 5736 5738 5739 5739 5738 5738 5737 5735 5735 5735 5735 5735 5734 5731 5728 5725 5722 5719 5717 5715 5712 5709 5707 5706 5705